Regional Weather Roundup
Issued by NWS

Home | Current Version | Previous Version | Text Only | Print | Product List | Glossary On
Versions: 1 2 3 4 5 6 7 8 9 10 11 12 13 14 15 16 17 18 19 20 21 22 23 24 25 26 27 28 29 30 31 32 33 34 35 36 37 38 39 40 41 42 43 44 45 46 47 48 49 50
000
ASUS45 KBOI 211410
RWRID

IDAHO REGIONAL WEATHER ROUNDUP
NATIONAL WEATHER SERVICE BOISE ID
700 AM MST SAT JAN 21 2017

NOTE: "FAIR" INDICATES FEW OR NO CLOUDS BELOW 12000 FEET
WITH NO SIGNIFICANT WEATHER AND/OR OBSTRUCTIONS TO VISIBILITY

IDZ012-014-211500-
SOUTHWEST IDAHO


CITY           SKY/WX    TMP DP  RH WIND       PRES   REMARKS
BOISE          CLOUDY    33  31  92 SW3       29.39R
CALDWELL       CLOUDY    33  32  96 E3        29.41R
MOUNTAIN HOME  FRZ DRZL  27  27 100 S5        29.40R VSB 1/4 WCI  21
$$

IDZ016-017-211500-
SOUTHCENTRAL IDAHO


CITY           SKY/WX    TMP DP  RH WIND       PRES   REMARKS
BURLEY         CLOUDY    33  28  81 W7        29.35R WCI  27
JEROME         CLOUDY    29  27  92 S6        29.37R WCI  23
TWIN FALLS     CLOUDY    31  25  78 S6        29.37R WCI  25
$$

IDZ019>023-211500-
SOUTHEAST IDAHO


CITY           SKY/WX    TMP DP  RH WIND       PRES   REMARKS
IDAHO FALLS    CLOUDY    25  23  92 CALM      29.34R
POCATELLO      LGT SNOW  27  25  92 SW7       29.36R WCI  19
REXBURG        LGT SNOW  23  21  92 CALM      29.34R FOG
$$

IDZ006-010-011-018-031-032-211500-
CENTRAL IDAHO MOUNTAINS


CITY           SKY/WX    TMP DP  RH WIND       PRES   REMARKS
MCCALL         LGT SNOW  26  23  88 CALM      29.31R FOG
HAILEY         LGT SNOW  28  27  93 NW5       29.34R WCI  23
STANLEY          N/A     16  13  88 E5        29.32R WCI   9
SALMON         CLOUDY    14  12  92 CALM      29.40R
CHALLIS        CLOUDY    15  14  95 CALM      29.36R FOG
$$

IDZ002-004-006-007-026-211500-
NORTHERN IDAHO


CITY           SKY/WX    TMP DP  RH WIND       PRES   REMARKS
LEWISTON       CLOUDY    36  30  79 E3        29.35R
LOWELL           N/A     32  30  92 CALM      29.43R
COEUR D`ALENE  CLOUDY    32  29  88 E7        29.35R WCI  26
MULLAN PASS    CLOUDY    22  20  92 S6        29.26R WCI  14
$$



USA.gov is the U.S. government's official web portal to all federal, state and local government web resources and services.